Location: Marsån
(66.4167°N, 22.2833°E)
Time: 11:44:55
(UTC+00:00)

USA 215 - Pass Details

Date: 24 February 2024
Orbit: 1100 x 1107 km, 123.0° (Epoch: 10 April)

Event Time Altitude Azimuth Distance (km) Brightness Sun altitude
Exits shadow 19:29:43 39° 167° (SSE) 1,597 3.7 -24.3°
Maximum altitude 19:30:21 40° 180° (S) 1,575 3.8 -24.3°
Drops below altitude 10° 19:36:26 10° 249° (WSW) 2,962 5.9 -24.8°
Sets 19:39:07 0° 257° (WSW) 3,920 6.7 -25.0°
